[[{"header":{"parameterUnit":"m.s-1","parameterCategory":1,"la1":30.2991,"la2":30.254,"lo1":-89.0895,"lo2":-89.0444,"dy":0.0017,"dx":0.0017,"nx":28,"ny":28,"refTime":"2025-04-04T03:00:00:Z","depth":0,"parameterNumber":2,"parameterNumberName":"U-component_of_WINDS"},"data":[0,0,0,0,0,0,0,0,0,0,0,0,0,0,0,0,0,0,0,0,0,0,0,0,0,0,0,0,0,0,0,0,0,0,0,0,0,0,0,0,0,0,0,0,0,0,0,0,0,0,0,0,0,0,0,0,0,0,-5.512,-5.5121,0,-5.5231,-5.5232,-5.5234,-5.5222,-5.522,-5.5218,-5.5216,-5.5327,-5.5332,-5.5336,0,0,0,0,0,0,0,0,0,0,0,0,0,-5.4895,-5.4899,-5.512,-5.5121,-5.5123,-5.5231,-5.5233,-5.5234,-5.5222,-5.522,-5.5218,-5.5216,-5.5326,-5.5331,-5.5337,0,0,0,0,0,0,0,0,0,0,0,0,0,-5.4998,-5.4901,-5.512,-5.513,-5.5132,-5.5231,-5.5233,-5.5234,-5.5222,-5.522,-5.5217,-5.5215,-5.5324,-5.5331,-5.5338,-5.5433,0,0,-5.5359,-5.5362,0,0,0,0,0,0,0,0,-5.4992,-5.5006,-5.5127,-5.5129,-5.5132,-5.521,-5.5194,-5.5301,-5.5223,-5.5188,-5.5216,-5.5213,-5.529,-5.53,-5.5326,-5.5438,-5.5443,-5.5359,-5.5363,-5.5366,-5.5368,0,0,0,0,0,0,0,-5.4985,-5.5001,-5.5164,-5.5129,-5.5132,-5.5128,-5.514,-5.5214,-5.5252,-5.5191,-5.519,-5.5204,-5.5291,-5.532,-5.5329,-5.5444,-5.5359,-5.5365,-5.5369,-5.5372,-5.5638,-5.5641,0,0,0,0,0,0,-5.4976,-5.4996,-5.516,-5.5167,-5.5054,-5.5134,-5.5147,-5.5187,-5.5252,-5.5259,-5.5206,-5.5203,-5.5309,-5.5321,-5.5333,-5.5447,-5.5366,-5.5373,-5.5377,-5.5636,-5.5639,-5.5642,0,0,0,0,0,0,-5.4971,-5.4991,-5.5156,-5.5081,-5.5102,-5.5141,-5.5186,-5.5191,-5.522,-5.5263,-5.5269,-5.5228,-5.5308,-5.5323,-5.5408,-5.545,-5.5376,-5.5382,-5.5632,-5.5637,-5.5641,-5.5676,0,0,0,0,0,0,-5.4965,-5.4989,-5.5026,-5.5082,-5.5106,-5.523,-5.5189,-5.5195,-5.5232,-5.5229,-5.5286,-5.5292,-5.5307,-5.5398,-5.5415,-5.5458,-5.5387,-5.5628,-5.5634,-5.5639,-5.5671,-5.5681,-5.569,0,0,0,0,0,-5.4957,-5.5031,-5.5028,-5.5048,-5.5153,-5.5232,-5.5246,-5.5262,-5.5235,-5.5272,-5.53,-5.5291,-5.5444,-5.5406,-5.5426,-5.5472,-5.5626,-5.5632,-5.5639,-5.5667,-5.5679,-5.569,0,0,0,0,0,0,-5.4977,-5.5038,-5.5035,-5.5131,-5.5177,-5.523,-5.5277,-5.5274,-5.5327,-5.5322,-5.5339,-5.5352,-5.5437,-5.5464,-5.5421,-5.5567,-5.5531,-5.5542,-5.5546,-5.5558,-5.5567,-5.5557,-5.5393,0,0,0,0,0,-5.4993,-5.5053,-5.5103,-5.5182,-5.5206,-5.5238,-5.5273,-5.5281,-5.5329,-5.5348,-5.5382,-5.5428,-5.5486,-5.5524,-5.558,-5.5677,-5.5688,-5.5718,-5.5727,-5.5735,-5.5743,-5.5794,-5.5807,-5.5664,-5.5664,-5.5664,0,0,-5.5026,-5.5067,-5.5103,-5.5187,-5.5224,-5.5284,-5.5254,-5.5319,-5.5364,-5.5357,-5.5439,-5.5466,-5.5519,-5.5609,-5.5651,-5.5634,-5.5785,-5.5743,-5.5749,-5.5753,-5.5802,-5.5816,-5.5828,-5.5669,-5.5668,-5.5667,0,0,-5.5116,-5.5154,-5.5223,-5.5261,-5.5317,-5.5338,-5.5355,-5.541,-5.5427,-5.551,-5.5506,-5.556,-5.5661,-5.5698,-5.573,-5.5836,-5.5828,-5.5854,-5.5901,-5.5951,-5.5962,-5.5972,-5.6007,-5.602,-5.5863,-5.5863,-5.5863,0,-5.5149,-5.5241,-5.5259,-5.5325,-5.5362,-5.5361,-5.543,-5.5466,-5.5537,-5.5562,-5.5542,-5.5669,-5.5704,-5.5802,-5.5828,-5.5855,-5.5874,-5.5846,-5.5959,-5.5969,-5.5979,-5.6013,-5.6026,-5.5865,-5.5865,-5.5865,-5.5865,0,-5.5278,-5.5342,-5.5391,-5.546,-5.5503,-5.5571,-5.5598,-5.5639,-5.5645,-5.5668,-5.5752,-5.5795,-5.5859,-5.5884,-5.589,-5.5983,-5.5971,-5.5956,-5.5919,-5.5995,-5.6027,-5.604,-5.5869,-5.5868,-5.5867,-5.5867,0,0,-5.5381,-5.5461,-5.5478,-5.551,-5.5572,-5.5622,-5.569,-5.5754,-5.5787,-5.5838,-5.5893,-5.5979,-5.5966,-5.6002,-5.6013,-5.6057,-5.6135,-5.6036,-5.6037,-5.605,-5.6239,-5.6248,-5.6263,-5.6133,-5.6135,-5.6137,-5.6234,0,-5.5475,-5.5595,-5.5614,-5.5719,-5.5777,-5.5778,-5.5837,-5.5881,-5.5905,-5.5957,-5.5984,-5.6043,-5.6022,-5.6044,-5.6088,-5.6116,-5.6173,-5.611,-5.6182,-5.6185,-5.6166,-5.628,-5.6289,-5.6378,-5.6247,-5.6249,-5.625,0,-5.56,-5.5654,-5.5765,-5.5819,-5.5844,-5.5897,-5.5957,-5.6008,-5.6058,-5.6073,-5.6114,-5.612,-5.6189,-5.6152,-5.6247,-5.6204,-5.6235,-5.6254,-5.6258,-5.6262,-5.622,-5.6285,-5.6407,-5.6419,-5.6271,-5.6269,-5.6268,0,-5.566,-5.5761,-5.584,-5.5867,-5.5934,-5.597,-5.6,-5.6048,-5.6085,-5.6138,-5.6162,-5.6222,-5.6254,-5.63,-5.6321,-5.6293,-5.6414,-5.638,-5.6426,-5.6426,-5.6449,-5.6446,-5.6575,-5.6474,-5.6474,-5.6474,-5.6474,0,-5.5761,-5.5828,-5.5868,-5.5916,-5.5992,-5.6013,-5.6087,-5.6115,-5.6158,-5.6211,-5.6217,-5.6266,-5.6293,-5.6346,-5.6363,-5.6438,-5.6453,-5.6465,-5.6468,-5.6463,-5.6461,-5.6481,-5.6474,-5.6477,-5.6477,-5.6476,-5.6475,0,-5.584,-5.587,-5.5956,-5.6012,-5.6028,-5.6081,-5.6129,-5.6175,-5.62,-5.6267,-5.6284,-5.6322,-5.6385,-5.6412,-5.649,-5.6501,-5.6586,-5.6586,-5.6569,-5.6569,-5.6613,-5.6607,-5.6756,-5.6776,-5.6665,-5.6666,-5.6667,0,-5.5901,-5.5953,-5.6015,-5.6052,-5.6082,-5.6141,-5.6179,-5.6203,-5.6243,-5.6305,-5.6343,-5.6407,-5.6459,-5.656,-5.6594,-5.6653,-5.6653,-5.6701,-5.6661,-5.6654,-5.665,-5.6645,-5.665,-5.6707,-5.6708,-5.6709,-5.6709,0,-5.6005,-5.6018,-5.6073,-5.6134,-5.618,-5.6229,-5.6276,-5.6306,-5.6337,-5.6381,-5.6446,-5.6487,-5.6567,-5.6629,-5.669,-5.672,-5.6719,-5.6722,-5.6736,-5.6729,-5.6716,-5.6721,-5.6585,-5.6718,-5.6717,-5.6716,-5.6716,-5.6716,-5.6075,-5.6121,-5.6172,-5.6233,-5.6272,-5.6317,-5.6363,-5.6394,-5.6449,-5.6516,-5.6527,-5.6596,-5.6646,-5.6728,-5.676,-5.6814,-5.6802,-5.6822,-5.6826,-5.683,-5.6831,-5.671,-5.6826,-5.6826,-5.6825,-5.6825,-5.6825,0,-5.6177,-5.6211,-5.6267,-5.6334,-5.6382,-5.638,-5.6433,-5.6473,-5.6534,-5.6581,-5.6632,-5.6706,-5.6767,-5.6807,-5.6868,-5.6904,-5.6905,-5.6919,-5.6914,-5.6921,-5.684,-5.6821,-5.6916,-5.6916,-5.6916,-5.6916,-5.6916,-5.6916,-5.6236,-5.6312,-5.6331,-5.6427,-5.6459,-5.6527,-5.6558,-5.6598,-5.6636,-5.6719,-5.677,-5.6796,-5.6839,-5.6904,-5.696,-5.697,-5.6991,-5.7005,-5.7013,-5.6936,-5.6927,-5.6918,-5.69,-5.701,-5.701,-5.7089,-5.709,-5.7091]},{"header":{"parameterUnit":"m.s-1","parameterCategory":1,"la1":30.2991,"la2":30.254,"lo1":-89.0895,"lo2":-89.0444,"dy":0.0017,"dx":0.0017,"nx":28,"ny":28,"refTime":"2025-04-04T03:00:00:Z","depth":0,"parameterNumber":3,"parameterNumberName":"V-component_of_WINDS"},"data":[0,0,0,0,0,0,0,0,0,0,0,0,0,0,0,0,0,0,0,0,0,0,0,0,0,0,0,0,0,0,0,0,0,0,0,0,0,0,0,0,0,0,0,0,0,0,0,0,0,0,0,0,0,0,0,0,0,0,4.5905,4.5907,0,4.6011,4.6013,4.6014,4.6023,4.6021,4.602,4.6019,4.6127,4.613,4.6134,0,0,0,0,0,0,0,0,0,0,0,0,0,4.5711,4.5715,4.5905,4.5907,4.5908,4.6011,4.6013,4.6014,4.6023,4.6021,4.602,4.6019,4.6125,4.613,4.6135,0,0,0,0,0,0,0,0,0,0,0,0,0,4.5804,4.5716,4.5905,4.5925,4.5928,4.6011,4.6013,4.6015,4.6023,4.6021,4.602,4.6018,4.6124,4.6129,4.6135,4.6206,0,0,4.6153,4.6156,0,0,0,0,0,0,0,0,4.5799,4.5811,4.5921,4.5924,4.5927,4.6002,4.5984,4.6079,4.6024,4.5987,4.6019,4.6017,4.6086,4.6095,4.6119,4.6211,4.6215,4.6154,4.6157,4.616,4.6161,0,0,0,0,0,0,0,4.5792,4.5807,4.5947,4.5922,4.5926,4.5929,4.594,4.6002,4.6045,4.599,4.5991,4.6003,4.6088,4.6113,4.6121,4.6217,4.6154,4.6159,4.6162,4.6165,4.6375,4.6377,0,0,0,0,0,0,4.5782,4.5801,4.5944,4.595,4.5857,4.5934,4.5946,4.598,4.6044,4.6052,4.6005,4.6003,4.6104,4.6115,4.6125,4.6214,4.616,4.6165,4.6169,4.6373,4.6376,4.6378,0,0,0,0,0,0,4.5778,4.5795,4.594,4.5876,4.5895,4.5939,4.5976,4.5983,4.6008,4.6055,4.6063,4.6023,4.6103,4.6117,4.6187,4.6218,4.6168,4.6173,4.6371,4.6374,4.6377,4.6392,0,0,0,0,0,0,4.5772,4.5793,4.582,4.5877,4.5898,4.5999,4.5978,4.5986,4.6018,4.6018,4.6074,4.6082,4.6103,4.6178,4.6192,4.6225,4.6178,4.6368,4.6372,4.6376,4.6388,4.6395,4.64,0,0,0,0,0,4.5765,4.5819,4.5821,4.5839,4.5933,4.6001,4.6013,4.6036,4.6021,4.6049,4.608,4.608,4.6212,4.6185,4.6201,4.6236,4.6366,4.6371,4.6376,4.6386,4.6393,4.64,0,0,0,0,0,0,4.5764,4.5827,4.583,4.5904,4.5947,4.6002,4.6038,4.6043,4.6091,4.6088,4.6115,4.6127,4.6197,4.6223,4.6192,4.631,4.6288,4.6296,4.629,4.6297,4.6303,4.6296,4.6183,0,0,0,0,0,4.5772,4.5822,4.5874,4.5934,4.5956,4.5993,4.6023,4.6038,4.6084,4.6102,4.6137,4.6182,4.6234,4.6267,4.6317,4.6392,4.6406,4.6425,4.6431,4.6435,4.6442,4.6487,4.6496,4.6393,4.6393,4.6393,0,0,4.579,4.583,4.586,4.5935,4.597,4.6022,4.6008,4.6063,4.6102,4.611,4.6178,4.6206,4.6258,4.6331,4.6365,4.6356,4.6474,4.6441,4.6444,4.6449,4.6493,4.6502,4.6511,4.6397,4.6396,4.6395,0,0,4.5849,4.5884,4.5939,4.5975,4.6029,4.6054,4.6067,4.6122,4.6141,4.6211,4.6219,4.6265,4.6353,4.639,4.642,4.6496,4.6499,4.6512,4.6542,4.6585,4.6594,4.6601,4.663,4.664,4.6518,4.6518,4.6518,0,4.5864,4.5942,4.5966,4.6022,4.6055,4.6066,4.6123,4.6156,4.6224,4.6247,4.6235,4.6348,4.6383,4.6466,4.6485,4.6509,4.6526,4.6505,4.659,4.6598,4.6605,4.6633,4.6644,4.652,4.6519,4.6519,4.6519,0,4.5959,4.6013,4.6051,4.6117,4.6155,4.6211,4.6244,4.628,4.6291,4.6318,4.6389,4.6432,4.6492,4.6513,4.6524,4.6599,4.6592,4.6585,4.6564,4.6616,4.6643,4.6653,4.6521,4.6521,4.6521,4.652,0,0,4.6018,4.6099,4.6113,4.6144,4.6206,4.6249,4.6305,4.6365,4.6396,4.6442,4.6492,4.6567,4.6562,4.6597,4.6612,4.665,4.671,4.6639,4.6641,4.6652,4.6798,4.6803,4.6815,4.6712,4.6715,4.6716,4.6794,0,4.6086,4.6188,4.6212,4.63,4.6352,4.6364,4.6414,4.6457,4.6484,4.6532,4.6561,4.6615,4.6603,4.6625,4.6662,4.6695,4.674,4.6689,4.676,4.6762,4.6747,4.6829,4.6835,4.6906,4.6804,4.6806,4.6807,0,4.6177,4.6227,4.632,4.6378,4.64,4.6445,4.6503,4.6548,4.6598,4.6615,4.6655,4.6668,4.6729,4.6704,4.6789,4.6754,4.6785,4.6805,4.6809,4.6817,4.6788,4.6841,4.6929,4.694,4.6824,4.6822,4.6821,0,4.6214,4.6304,4.6373,4.6399,4.6467,4.6498,4.6528,4.6576,4.6612,4.6662,4.6686,4.6742,4.6774,4.6818,4.6846,4.6825,4.693,4.6907,4.6946,4.6946,4.6968,4.6966,4.7064,4.6985,4.6985,4.6985,4.6985,0,4.6287,4.6344,4.6391,4.6432,4.6497,4.6525,4.6589,4.6619,4.6663,4.6711,4.6725,4.677,4.6804,4.6854,4.6876,4.6945,4.6958,4.6974,4.698,4.6974,4.6972,4.6995,4.6991,4.6988,4.6987,4.6987,4.6986,0,4.6339,4.6372,4.6448,4.6507,4.6523,4.6568,4.6619,4.6661,4.6688,4.675,4.6766,4.6809,4.687,4.6902,4.6977,4.6992,4.7069,4.7071,4.7052,4.7055,4.7093,4.709,4.721,4.7228,4.7136,4.7137,4.7137,0,4.6384,4.6428,4.6492,4.6526,4.6557,4.6611,4.6648,4.6678,4.6715,4.6778,4.6812,4.6874,4.6924,4.702,4.7058,4.7117,4.7121,4.7159,4.713,4.7123,4.7124,4.7121,4.7127,4.7164,4.7165,4.7166,4.7166,0,4.6461,4.6476,4.6528,4.6587,4.6631,4.6678,4.6725,4.6752,4.679,4.6832,4.6894,4.6934,4.7012,4.7073,4.7134,4.7165,4.7173,4.7175,4.7188,4.7183,4.7171,4.718,4.7068,4.7173,4.7172,4.7171,4.7171,4.7171,4.6512,4.6553,4.6605,4.6664,4.6703,4.6747,4.679,4.6824,4.6877,4.6943,4.6957,4.7024,4.7075,4.7159,4.7192,4.7244,4.7237,4.7254,4.7259,4.7264,4.7266,4.7162,4.7255,4.7255,4.7255,4.7255,4.7255,0,4.6591,4.6626,4.668,4.6746,4.6793,4.6796,4.6849,4.6888,4.6946,4.6994,4.7044,4.7117,4.7177,4.7221,4.7282,4.7316,4.7321,4.7332,4.733,4.7337,4.7268,4.7252,4.7327,4.7327,4.7326,4.7326,4.7326,4.7326,4.6638,4.6709,4.673,4.6821,4.6855,4.6921,4.6951,4.6992,4.7031,4.7112,4.7162,4.7191,4.7237,4.7303,4.7358,4.737,4.7393,4.7403,4.7415,4.7349,4.7342,4.7335,4.732,4.7407,4.7407,4.748,4.748,4.7481]}]]